QPF
0.07 0.08 0.08 0.08 0.09 0.09 0.11 0.11 0.08 0.07 0.05 0.06 0.08 0.09 0.10 0.10 0.09 0.08 0.06 0.06 0.07 0.08 0.10 0.13 0.12 0.11 0.09 0.08 0.07 0.06 0.06 0.06 0.05 0.03 0.03 0.04 0.06 0.06 0.05 0.04 0.05 0.04 0.04
0.04 0.05 0.05 0.06 0.07 0.06 0.07 0.10 0.09 0.12 0.06 0.06 0.08 0.07 0.08 0.10 0.11 0.11 0.08 0.07 0.08 0.08 0.10 0.13 0.13 0.10 0.09 0.08 0.07 0.05 0.06 0.07 0.07 0.04 0.03 0.05 0.07 0.07 0.06 0.05 0.05 0.04 0.04
0.03 0.04 0.05 0.06 0.06 0.07 0.07 0.06 0.05 0.07 0.08 0.07 0.06 0.05 0.05 0.10 0.15 0.14 0.11 0.09 0.09 0.13 0.17 0.16 0.12 0.10 0.10 0.10 0.07 0.06 0.07 0.07 0.06 0.05 0.04 0.04 0.07 0.06 0.05 0.04 0.04 0.04 0.03
0.03 0.03 0.04 0.05 0.05 0.05 0.06 0.07 0.06 0.06 0.07 0.06 0.06 0.06 0.07 0.13 0.14 0.13 0.11 0.10 0.08 0.09 0.14 0.20 0.18 0.12 0.09 0.11 0.11 0.09 0.07 0.06 0.07 0.04 0.03 0.03 0.04 0.05 0.04 0.04 0.04 0.04 0.04
0.04 0.04 0.03 0.04 0.04 0.04 0.05 0.06 0.06 0.06 0.07 0.07 0.06 0.07 0.08 0.13 0.13 0.14 0.15 0.13 0.10 0.08 0.10 0.15 0.17 0.15 0.12 0.11 0.10 0.08 0.07 0.08 0.07 0.05 0.04 0.04 0.04 0.04 0.04 0.04 0.03 0.03 0.04
0.05 0.05 0.04 0.04 0.04 0.03 0.03 0.03 0.04 0.04 0.05 0.05 0.08 0.09 0.08 0.10 0.11 0.12 0.12 0.12 0.11 0.11 0.12 0.14 0.15 0.18 0.15 0.11 0.09 0.08 0.07 0.06 0.06 0.06 0.06 0.06 0.05 0.04 0.03 0.04 0.04 0.03 0.03
0.05 0.06 0.05 0.05 0.05 0.04 0.02 0.02 0.03 0.04 0.04 0.05 0.08 0.09 0.09 0.08 0.08 0.07 0.05 0.07 0.09 0.09 0.09 0.10 0.08 0.07 0.06 0.09 0.10 0.07 0.07 0.07 0.05 0.05 0.06 0.07 0.06 0.06 0.04 0.03 0.04 0.05 0.05
0.06 0.06 0.06 0.07 0.07 0.05 0.03 0.03 0.03 0.04 0.04 0.05 0.08 0.08 0.07 0.08 0.06 0.06 0.06 0.07 0.07 0.07 0.07 0.05 0.05 0.06 0.05 0.04 0.05 0.05 0.06 0.07 0.06 0.05 0.06 0.08 0.09 0.08 0.06 0.04 0.03 0.04 0.05
0.06 0.06 0.06 0.06 0.05 0.04 0.04 0.04 0.04 0.05 0.05 0.05 0.06 0.07 0.07 0.06 0.06 0.07 0.09 0.10 0.09 0.08 0.10 0.10 0.07 0.06 0.05 0.04 0.04 0.04 0.04 0.07 0.09 0.09 0.06 0.07 0.09 0.09 0.05 0.05 0.04 0.04 0.04
0.06 0.05 0.06 0.06 0.05 0.04 0.04 0.04 0.05 0.05 0.05 0.06 0.06 0.05 0.07 0.06 0.04 0.04 0.07 0.09 0.08 0.07 0.10 0.14 0.17 0.12 0.09 0.08 0.05 0.04 0.03 0.05 0.07 0.08 0.08 0.08 0.08 0.07 0.06 0.06 0.06 0.05 0.05
0.05 0.04 0.05 0.06 0.07 0.05 0.04 0.04 0.05 0.05 0.05 0.07 0.08 0.07 0.07 0.06 0.05 0.05 0.05 0.06 0.07 0.07 0.08 0.11 0.19 0.19 0.16 0.12 0.10 0.08 0.08 0.08 0.08 0.09 0.11 0.13 0.11 0.07 0.05 0.05 0.05 0.04 0.03
0.05 0.04 0.05 0.06 0.06 0.04 0.03 0.04 0.05 0.05 0.05 0.06 0.07 0.08 0.05 0.06 0.06 0.06 0.04 0.03 0.03 0.06 0.08 0.09 0.13 0.15 0.14 0.16 0.19 0.18 0.16 0.13 0.10 0.09 0.10 0.09 0.08 0.07 0.06 0.06 0.06 0.06 0.06
0.04 0.03 0.03 0.03 0.03 0.02 0.02 0.04 0.04 0.04 0.04 0.05 0.06 0.06 0.04 0.05 0.06 0.06 0.05 0.04 0.04 0.05 0.10 0.12 0.16 0.19 0.19 0.21 0.23 0.25 0.21 0.16 0.12 0.10 0.10 0.09 0.07 0.06 0.05 0.05 0.06 0.07 0.08
0.02 0.01 0.01 0.01 0.01 0.02 0.02 0.02 0.03 0.04 0.04 0.04 0.04 0.04 0.04 0.05 0.06 0.07 0.08 0.07 0.06 0.07 0.10 0.12 0.13 0.13 0.17 0.22 0.23 0.22 0.21 0.21 0.14 0.10 0.09 0.08 0.06 0.05 0.04 0.04 0.04 0.04 0.06
0.01 0.01 0.01 0.02 0.02 0.02 0.03 0.03 0.03 0.03 0.04 0.05 0.05 0.05 0.03 0.03 0.04 0.06 0.09 0.10 0.10 0.11 0.12 0.12 0.13 0.12 0.11 0.13 0.17 0.14 0.15 0.15 0.13 0.12 0.09 0.06 0.05 0.04 0.04 0.04 0.04 0.03 0.04
0.00 0.01 0.01 0.01 0.01 0.02 0.02 0.04 0.03 0.05 0.06 0.06 0.06 0.05 0.04 0.03 0.03 0.05 0.07 0.08 0.08 0.10 0.12 0.14 0.13 0.11 0.08 0.07 0.08 0.08 0.09 0.09 0.07 0.08 0.07 0.05 0.05 0.05 0.06 0.05 0.05 0.05 0.04
0.01 0.01 0.01 0.01 0.01 0.01 0.02 0.03 0.03 0.05 0.06 0.07 0.05 0.04 0.04 0.03 0.04 0.04 0.06 0.06 0.06 0.08 0.10 0.12 0.13 0.10 0.07 0.07 0.05 0.06 0.07 0.07 0.07 0.07 0.05 0.04 0.04 0.05 0.05 0.05 0.05 0.05 0.05
0.01 0.01 0.01 0.01 0.01 0.01 0.02 0.03 0.04 0.05 0.07 0.08 0.07 0.06 0.04 0.03 0.03 0.04 0.04 0.05 0.05 0.06 0.06 0.07 0.07 0.07 0.07 0.06 0.05 0.06 0.06 0.07 0.06 0.05 0.04 0.03 0.03 0.03 0.03 0.03 0.03 0.02 0.02
0.00 0.01 0.01 0.02 0.02 0.02 0.03 0.03 0.05 0.07 0.07 0.07 0.06 0.04 0.03 0.03 0.03 0.04 0.04 0.03 0.02 0.02 0.03 0.03 0.03 0.04 0.05 0.05 0.03 0.03 0.03 0.04 0.04 0.03 0.02 0.02 0.02 0.02 0.01 0.01 0.01 0.01 0.02
0.00 0.00 0.01 0.02 0.02 0.02 0.02 0.04 0.05 0.06 0.05 0.04 0.03 0.04 0.04 0.04 0.04 0.03 0.03 0.02 0.02 0.02 0.03 0.03 0.03 0.03 0.03 0.04 0.03 0.03 0.03 0.02 0.02 0.02 0.02 0.01 0.01 0.01 0.01 0.01 0.01 0.01 0.01
0.00 0.01 0.01 0.02 0.02 0.03 0.03 0.04 0.05 0.05 0.04 0.02 0.01 0.02 0.03 0.03 0.02 0.02 0.03 0.03 0.03 0.03 0.04 0.03 0.02 0.02 0.03 0.05 0.04 0.04 0.04 0.02 0.02 0.02 0.02 0.02 0.02 0.01 0.01 0.01 0.01 0.01 0.01
0.01 0.01 0.01 0.02 0.02 0.02 0.02 0.03 0.04 0.04 0.03 0.02 0.02 0.02 0.02 0.02 0.01 0.02 0.02 0.03 0.04 0.04 0.03 0.04 0.05 0.05 0.05 0.04 0.03 0.02 0.03 0.02 0.01 0.01 0.01 0.01 0.02 0.02 0.02 0.01 0.01 0.01 0.00
0.03 0.03 0.02 0.02 0.02 0.02 0.02 0.02 0.03 0.02 0.01 0.02 0.02 0.02 0.02 0.02 0.01 0.01 0.02 0.02 0.02 0.02 0.03 0.03 0.03 0.02 0.02 0.02 0.02 0.02 0.02 0.02 0.02 0.01 0.01 0.01 0.01 0.01 0.02 0.01 0.01 0.00 0.00
0.03 0.03 0.02 0.02 0.02 0.02 0.02 0.01 0.01 0.01 0.01 0.01 0.01 0.01 0.01 0.02 0.01 0.01 0.01 0.01 0.01 0.01 0.01 0.01 0.01 0.01 0.01 0.01 0.01 0.01 0.02 0.02 0.02 0.02 0.01 0.01 0.02 0.02 0.01 0.01 0.02 0.02 0.01
0.02 0.02 0.02 0.02 0.02 0.03 0.03 0.02 0.02 0.01 0.01 0.01 0.01 0.00 0.00 0.00 0.01 0.01 0.00 0.01 0.00 0.00 0.01 0.01 0.01 0.01 0.01 0.01 0.00 0.01 0.01 0.02 0.03 0.04 0.03 0.02 0.02 0.02 0.02 0.01 0.02 0.02 0.02
0.02 0.02 0.03 0.03 0.03 0.05 0.05 0.04 0.03 0.02 0.01 0.00 0.00 0.00 0.00 0.01 0.01 0.00 0.00 0.00 0.00 0.00 0.00 0.00 0.00 0.00 0.01 0.01 0.01 0.01 0.02 0.02 0.03 0.03 0.03 0.03 0.03 0.02 0.03 0.03 0.03 0.03 0.03
MSLP
1013.74 1013.76 1013.70 1013.59 1013.45 1013.33 1013.26 1013.28 1013.40 1013.63 1013.95 1014.31 1014.69 1015.05 1015.38 1015.67 1015.92 1016.14 1016.36 1016.59 1016.84 1017.11 1017.40 1017.70 1018.00 1018.28 1018.53 1018.75 1018.96 1019.14 1019.33 1019.51 1019.71 1019.92 1020.14 1020.36 1020.57 1020.76 1020.92 1021.05 1021.14 1021.21 1021.27
1013.87 1013.93 1013.91 1013.82 1013.69 1013.56 1013.48 1013.49 1013.61 1013.83 1014.16 1014.54 1014.95 1015.34 1015.68 1015.96 1016.18 1016.36 1016.53 1016.71 1016.92 1017.18 1017.47 1017.80 1018.13 1018.45 1018.74 1018.98 1019.19 1019.37 1019.53 1019.69 1019.86 1020.05 1020.25 1020.46 1020.67 1020.86 1021.01 1021.13 1021.21 1021.26 1021.30
1013.93 1014.05 1014.08 1014.04 1013.96 1013.87 1013.81 1013.83 1013.95 1014.18 1014.51 1014.90 1015.30 1015.69 1016.01 1016.27 1016.44 1016.57 1016.67 1016.79 1016.95 1017.16 1017.44 1017.77 1018.13 1018.48 1018.80 1019.08 1019.31 1019.49 1019.64 1019.79 1019.94 1020.11 1020.29 1020.49 1020.69 1020.86 1021.01 1021.11 1021.18 1021.22 1021.24
1013.92 1014.09 1014.19 1014.23 1014.23 1014.20 1014.20 1014.25 1014.39 1014.62 1014.94 1015.32 1015.71 1016.07 1016.36 1016.57 1016.69 1016.75 1016.78 1016.82 1016.92 1017.08 1017.32 1017.64 1017.99 1018.36 1018.71 1019.01 1019.26 1019.45 1019.61 1019.75 1019.89 1020.04 1020.21 1020.40 1020.57 1020.73 1020.86 1020.96 1021.02 1021.05 1021.07
1013.84 1014.04 1014.21 1014.34 1014.43 1014.50 1014.57 1014.67 1014.84 1015.08 1015.38 1015.73 1016.09 1016.42 1016.67 1016.83 1016.90 1016.90 1016.86 1016.84 1016.86 1016.96 1017.15 1017.42 1017.75 1018.11 1018.46 1018.77 1019.03 1019.24 1019.41 1019.55 1019.69 1019.83 1019.99 1020.15 1020.31 1020.45 1020.57 1020.65 1020.70 1020.74 1020.76
1013.68 1013.90 1014.13 1014.34 1014.53 1014.69 1014.84 1015.00 1015.20 1015.44 1015.73 1016.05 1016.38 1016.66 1016.88 1017.01 1017.05 1017.01 1016.92 1016.84 1016.80 1016.83 1016.95 1017.17 1017.45 1017.78 1018.10 1018.41 1018.67 1018.88 1019.05 1019.20 1019.33 1019.47 1019.61 1019.75 1019.89 1020.02 1020.12 1020.20 1020.25 1020.29 1020.33
1013.48 1013.69 1013.95 1014.22 1014.49 1014.74 1014.97 1015.18 1015.40 1015.65 1015.92 1016.21 1016.50 1016.76 1016.96 1017.08 1017.11 1017.05 1016.95 1016.84 1016.76 1016.74 1016.80 1016.94 1017.16 1017.42 1017.70 1017.97 1018.21 1018.41 1018.58 1018.73 1018.86 1018.99 1019.12 1019.25 1019.37 1019.48 1019.57 1019.64 1019.70 1019.76 1019.82
1013.27 1013.43 1013.69 1014.01 1014.33 1014.64 1014.93 1015.18 1015.42 1015.65 1015.90 1016.16 1016.42 1016.66 1016.86 1016.99 1017.05 1017.02 1016.95 1016.84 1016.75 1016.69 1016.70 1016.78 1016.92 1017.11 1017.33 1017.54 1017.74 1017.92 1018.07 1018.21 1018.33 1018.45 1018.57 1018.69 1018.80 1018.89 1018.97 1019.05 1019.12 1019.20 1019.29
1013.06 1013.17 1013.41 1013.73 1014.08 1014.42 1014.74 1015.01 1015.24 1015.46 1015.67 1015.90 1016.14 1016.37 1016.58 1016.75 1016.85 1016.89 1016.87 1016.81 1016.74 1016.69 1016.67 1016.70 1016.77 1016.89 1017.03 1017.18 1017.33 1017.47 1017.59 1017.71 1017.83 1017.94 1018.05 1018.15 1018.25 1018.34 1018.42 1018.49 1018.58 1018.68 1018.82
1012.88 1012.94 1013.14 1013.44 1013.78 1014.13 1014.44 1014.71 1014.92 1015.10 1015.28 1015.46 1015.67 1015.90 1016.12 1016.33 1016.51 1016.63 1016.69 1016.71 1016.71 1016.68 1016.67 1016.67 1016.71 1016.76 1016.84 1016.93 1017.03 1017.12 1017.22 1017.32 1017.42 1017.52 1017.62 1017.72 1017.81 1017.90 1017.98 1018.06 1018.16 1018.29 1018.46
1012.76 1012.76 1012.91 1013.17 1013.49 1013.82 1014.11 1014.34 1014.51 1014.65 1014.77 1014.91 1015.08 1015.29 1015.53 1015.78 1016.02 1016.22 1016.39 1016.50 1016.58 1016.62 1016.65 1016.66 1016.69 1016.72 1016.75 1016.80 1016.85 1016.91 1016.98 1017.06 1017.15 1017.24 1017.34 1017.44 1017.53 1017.62 1017.70 1017.80 1017.92 1018.07 1018.26
1012.68 1012.64 1012.75 1012.97 1013.25 1013.53 1013.78 1013.96 1014.09 1014.16 1014.23 1014.31 1014.43 1014.61 1014.84 1015.11 1015.40 1015.68 1015.94 1016.15 1016.32 1016.45 1016.55 1016.62 1016.67 1016.71 1016.74 1016.77 1016.81 1016.85 1016.90 1016.97 1017.05 1017.14 1017.24 1017.34 1017.44 1017.54 1017.64 1017.75 1017.88 1018.05 1018.26
1012.63 1012.57 1012.65 1012.82 1013.06 1013.30 1013.50 1013.63 1013.70 1013.72 1013.72 1013.73 1013.79 1013.92 1014.13 1014.39 1014.70 1015.03 1015.36 1015.66 1015.93 1016.16 1016.34 1016.49 1016.61 1016.70 1016.76 1016.82 1016.87 1016.91 1016.97 1017.03 1017.12 1017.21 1017.32 1017.43 1017.55 1017.66 1017.78 1017.91 1018.06 1018.25 1018.47
1012.59 1012.53 1012.59 1012.74 1012.93 1013.13 1013.29 1013.38 1013.40 1013.36 1013.30 1013.25 1013.25 1013.32 1013.47 1013.70 1013.99 1014.34 1014.70 1015.06 1015.41 1015.73 1016.02 1016.27 1016.48 1016.65 1016.79 1016.90 1017.00 1017.08 1017.16 1017.24 1017.34 1017.45 1017.57 1017.70 1017.84 1017.98 1018.12 1018.27 1018.44 1018.64 1018.87
1012.53 1012.49 1012.55 1012.69 1012.86 1013.03 1013.16 1013.23 1013.21 1013.14 1013.03 1012.93 1012.87 1012.86 1012.94 1013.11 1013.36 1013.67 1014.04 1014.43 1014.83 1015.23 1015.61 1015.97 1016.29 1016.57 1016.80 1017.00 1017.17 1017.31 1017.44 1017.56 1017.69 1017.82 1017.96 1018.12 1018.27 1018.44 1018.61 1018.78 1018.96 1019.17 1019.40
1012.45 1012.45 1012.53 1012.67 1012.84 1013.00 1013.12 1013.17 1013.15 1013.06 1012.94 1012.80 1012.68 1012.61 1012.62 1012.71 1012.88 1013.14 1013.46 1013.85 1014.27 1014.72 1015.17 1015.63 1016.06 1016.45 1016.80 1017.11 1017.37 1017.59 1017.78 1017.96 1018.12 1018.28 1018.45 1018.62 1018.80 1018.98 1019.17 1019.36 1019.56 1019.77 1020.00
1012.33 1012.39 1012.51 1012.67 1012.85 1013.02 1013.15 1013.22 1013.22 1013.14 1013.01 1012.86 1012.71 1012.60 1012.53 1012.54 1012.63 1012.80 1013.07 1013.40 1013.81 1014.28 1014.78 1015.31 1015.83 1016.33 1016.80 1017.22 1017.58 1017.88 1018.14 1018.37 1018.57 1018.77 1018.96 1019.15 1019.34 1019.54 1019.74 1019.94 1020.14 1020.35 1020.57
1012.20 1012.32 1012.49 1012.68 1012.89 1013.09 1013.25 1013.35 1013.38 1013.34 1013.24 1013.10 1012.94 1012.80 1012.68 1012.62 1012.62 1012.71 1012.89 1013.16 1013.53 1013.98 1014.50 1015.07 1015.66 1016.25 1016.80 1017.32 1017.77 1018.15 1018.48 1018.76 1019.00 1019.22 1019.42 1019.62 1019.82 1020.02 1020.22 1020.41 1020.61 1020.81 1021.01
1012.08 1012.27 1012.49 1012.73 1012.97 1013.20 1013.39 1013.53 1013.61 1013.62 1013.56 1013.46 1013.32 1013.17 1013.03 1012.91 1012.85 1012.86 1012.95 1013.15 1013.45 1013.86 1014.37 1014.94 1015.56 1016.20 1016.82 1017.41 1017.92 1018.38 1018.76 1019.07 1019.34 1019.57 1019.77 1019.97 1020.16 1020.34 1020.53 1020.71 1020.89 1021.07 1021.26
1011.98 1012.24 1012.51 1012.80 1013.07 1013.33 1013.56 1013.74 1013.86 1013.92 1013.92 1013.87 1013.77 1013.64 1013.50 1013.37 1013.26 1013.20 1013.22 1013.34 1013.58 1013.93 1014.39 1014.94 1015.56 1016.21 1016.86 1017.47 1018.03 1018.52 1018.93 1019.26 1019.54 1019.76 1019.96 1020.13 1020.30 1020.46 1020.62 1020.77 1020.93 1021.09 1021.26
1011.93 1012.25 1012.58 1012.89 1013.20 1013.48 1013.73 1013.93 1014.09 1014.20 1014.26 1014.27 1014.22 1014.14 1014.03 1013.89 1013.77 1013.68 1013.65 1013.71 1013.87 1014.15 1014.55 1015.05 1015.63 1016.26 1016.89 1017.51 1018.07 1018.56 1018.97 1019.30 1019.56 1019.77 1019.94 1020.09 1020.22 1020.35 1020.47 1020.60 1020.74 1020.88 1021.03
1011.94 1012.31 1012.67 1013.01 1013.33 1013.62 1013.87 1014.08 1014.27 1014.41 1014.52 1014.59 1014.61 1014.59 1014.52 1014.42 1014.31 1014.22 1014.16 1014.17 1014.27 1014.49 1014.81 1015.25 1015.76 1016.33 1016.93 1017.50 1018.03 1018.49 1018.88 1019.18 1019.42 1019.59 1019.73 1019.84 1019.94 1020.04 1020.13 1020.23 1020.34 1020.47 1020.60
1011.99 1012.41 1012.79 1013.15 1013.46 1013.73 1013.97 1014.18 1014.37 1014.54 1014.68 1014.80 1014.89 1014.93 1014.93 1014.89 1014.82 1014.75 1014.68 1014.67 1014.73 1014.89 1015.14 1015.49 1015.93 1016.43 1016.94 1017.45 1017.92 1018.33 1018.67 1018.94 1019.13 1019.27 1019.37 1019.45 1019.52 1019.59 1019.66 1019.74 1019.84 1019.94 1020.07
1012.09 1012.53 1012.93 1013.27 1013.57 1013.82 1014.03 1014.22 1014.40 1014.57 1014.75 1014.91 1015.06 1015.17 1015.24 1015.27 1015.26 1015.22 1015.18 1015.16 1015.19 1015.30 1015.49 1015.77 1016.12 1016.53 1016.96 1017.38 1017.78 1018.12 1018.40 1018.61 1018.77 1018.87 1018.94 1018.99 1019.04 1019.09 1019.15 1019.22 1019.31 1019.42 1019.54
1012.21 1012.66 1013.06 1013.39 1013.66 1013.88 1014.06 1014.22 1014.38 1014.55 1014.74 1014.94 1015.13 1015.31 1015.46 1015.55 1015.60 1015.62 1015.61 1015.60 1015.62 1015.69 1015.83 1016.04 1016.31 1016.63 1016.98 1017.32 1017.64 1017.91 1018.13 1018.29 1018.41 1018.48 1018.53 1018.57 1018.61 1018.65 1018.71 1018.79 1018.87 1018.98 1019.09
1012.32 1012.78 1013.17 1013.49 1013.73 1013.91 1014.06 1014.19 1014.33 1014.50 1014.70 1014.92 1015.16 1015.39 1015.59 1015.75 1015.87 1015.93 1015.95 1015.97 1015.99 1016.04 1016.14 1016.29 1016.50 1016.75 1017.02 1017.29 1017.54 1017.75 1017.92 1018.05 1018.13 1018.18 1018.22 1018.26 1018.30 1018.35 1018.41 1018.49 1018.58 1018.68 1018.79
Thickness
5770 5769 5768 5767 5766 5765 5763 5762 5761 5761 5760 5759 5757 5756 5755 5753 5752 5750 5749 5748 5746 5745 5744 5742 5739 5737 5736 5735 5734 5733 5731 5730 5729 5727 5726 5725 5724 5723 5722 5721 5719 5718 5716
5771 5770 5768 5767 5766 5765 5763 5762 5761 5760 5759 5758 5757 5755 5754 5752 5751 5749 5747 5746 5745 5744 5742 5741 5739 5737 5736 5735 5733 5732 5730 5729 5728 5727 5726 5725 5724 5723 5721 5720 5719 5718 5716
5772 5770 5768 5766 5766 5765 5764 5763 5761 5760 5759 5758 5756 5754 5753 5752 5749 5747 5746 5745 5743 5741 5740 5739 5737 5736 5736 5734 5733 5731 5730 5728 5727 5726 5726 5724 5723 5722 5721 5720 5718 5717 5716
5772 5771 5769 5767 5766 5765 5764 5762 5760 5758 5757 5755 5753 5753 5751 5750 5748 5746 5744 5743 5741 5740 5739 5737 5736 5735 5734 5733 5732 5730 5729 5728 5727 5726 5725 5723 5722 5721 5720 5719 5718 5717 5715
5772 5771 5769 5767 5766 5765 5764 5762 5759 5757 5754 5752 5751 5750 5749 5747 5745 5744 5742 5741 5740 5738 5737 5735 5735 5734 5733 5732 5731 5730 5728 5727 5727 5726 5724 5723 5721 5720 5719 5718 5717 5716 5714
5772 5770 5768 5767 5765 5764 5762 5760 5758 5756 5754 5752 5750 5748 5746 5745 5743 5741 5740 5738 5738 5737 5735 5734 5733 5732 5731 5730 5729 5729 5728 5727 5726 5725 5723 5722 5720 5719 5717 5716 5715 5714 5712
5771 5769 5768 5766 5765 5762 5760 5759 5757 5754 5751 5751 5746 5741 5741 5742 5740 5739 5738 5736 5735 5734 5733 5732 5731 5730 5729 5728 5728 5727 5726 5726 5725 5723 5721 5720 5718 5717 5715 5714 5712 5712 5710
5771 5769 5767 5765 5764 5761 5759 5758 5756 5752 5750 5750 5744 5737 5731 5731 5734 5737 5735 5734 5733 5732 5731 5729 5728 5727 5726 5726 5726 5725 5725 5724 5723 5721 5719 5717 5716 5715 5713 5711 5710 5709 5708
5770 5769 5768 5766 5763 5761 5758 5757 5755 5751 5747 5747 5747 5739 5729 5723 5726 5729 5730 5730 5729 5728 5727 5727 5725 5724 5723 5722 5722 5721 5721 5720 5719 5717 5716 5714 5713 5712 5710 5708 5707 5706 5705
5771 5769 5768 5766 5764 5761 5759 5757 5755 5753 5749 5744 5744 5743 5739 5734 5725 5720 5723 5725 5725 5724 5724 5724 5722 5720 5719 5718 5717 5717 5716 5715 5714 5713 5712 5710 5709 5707 5706 5705 5704 5703 5702
5771 5769 5768 5766 5764 5762 5760 5757 5755 5752 5750 5746 5743 5741 5738 5735 5731 5722 5716 5717 5718 5719 5719 5718 5717 5716 5715 5714 5713 5712 5711 5710 5709 5708 5706 5705 5704 5703 5701 5700 5699 5698 5697
5769 5769 5768 5766 5764 5762 5759 5757 5754 5752 5749 5747 5744 5741 5737 5732 5728 5724 5717 5714 5712 5713 5713 5713 5712 5711 5710 5709 5709 5707 5706 5705 5704 5703 5701 5700 5699 5698 5696 5695 5694 5693 5692
5767 5767 5767 5765 5763 5761 5759 5756 5753 5751 5748 5745 5743 5740 5738 5735 5732 5727 5720 5714 5710 5708 5707 5706 5706 5706 5704 5704 5703 5702 5701 5699 5698 5696 5695 5694 5693 5691 5690 5689 5688 5686 5685
5767 5767 5766 5764 5762 5760 5758 5755 5752 5749 5746 5744 5742 5739 5736 5734 5732 5728 5722 5715 5707 5703 5701 5699 5699 5699 5698 5697 5696 5695 5694 5693 5691 5690 5688 5687 5685 5684 5683 5681 5680 5679 5677
5768 5766 5764 5762 5760 5758 5755 5752 5749 5746 5743 5741 5739 5737 5734 5732 5730 5728 5724 5719 5711 5700 5694 5694 5693 5693 5692 5690 5689 5689 5688 5686 5685 5682 5681 5679 5678 5676 5674 5672 5671 5670 5669
5767 5765 5762 5760 5757 5755 5752 5749 5746 5743 5740 5738 5736 5734 5731 5729 5727 5724 5721 5717 5713 5705 5695 5691 5689 5687 5686 5684 5682 5681 5680 5678 5676 5674 5672 5671 5669 5667 5665 5663 5661 5660 5659
5765 5763 5760 5757 5754 5751 5749 5746 5742 5740 5736 5733 5732 5730 5727 5725 5723 5720 5717 5713 5709 5704 5694 5688 5685 5682 5680 5677 5675 5673 5671 5669 5667 5665 5664 5662 5660 5658 5656 5654 5652 5650 5649
5762 5760 5757 5754 5751 5748 5745 5742 5739 5736 5733 5729 5727 5725 5723 5721 5718 5715 5712 5708 5704 5701 5695 5686 5680 5677 5673 5671 5668 5665 5662 5660 5658 5656 5654 5652 5650 5649 5647 5645 5642 5641 5639
5759 5756 5753 5750 5747 5744 5741 5739 5736 5733 5730 5727 5724 5721 5718 5716 5712 5710 5707 5703 5700 5697 5692 5684 5677 5672 5668 5665 5661 5658 5655 5652 5650 5648 5645 5644 5642 5640 5638 5635 5633 5631 5629
5756 5752 5749 5746 5743 5741 5738 5735 5732 5729 5727 5724 5721 5718 5715 5712 5708 5706 5702 5698 5694 5689 5685 5679 5672 5666 5662 5658 5655 5650 5646 5644 5642 5640 5637 5635 5633 5630 5628 5626 5623 5621 5619
5753 5750 5746 5743 5740 5737 5735 5731 5728 5725 5722 5719 5716 5714 5711 5708 5705 5702 5699 5693 5690 5684 5678 5672 5666 5661 5656 5652 5648 5645 5641 5637 5635 5633 5629 5627 5624 5621 5619 5616 5614 5611 5609
5749 5746 5742 5739 5736 5734 5731 5729 5725 5721 5717 5714 5710 5708 5706 5703 5700 5697 5694 5690 5687 5680 5673 5667 5661 5656 5651 5648 5644 5641 5635 5631 5628 5626 5623 5619 5617 5613 5611 5608 5606 5603 5600
5745 5741 5738 5735 5731 5729 5727 5724 5721 5717 5713 5709 5705 5703 5701 5698 5694 5691 5687 5684 5679 5676 5671 5665 5658 5653 5649 5645 5641 5636 5631 5627 5624 5621 5617 5611 5609 5606 5604 5601 5598 5595 5592
5743 5738 5735 5732 5728 5726 5723 5720 5716 5712 5708 5704 5701 5698 5694 5690 5688 5684 5680 5675 5671 5667 5664 5660 5656 5651 5647 5642 5638 5633 5628 5622 5618 5615 5612 5605 5602 5599 5597 5593 5590 5587 5583
5740 5736 5732 5729 5725 5722 5719 5715 5712 5707 5702 5698 5695 5692 5689 5685 5682 5679 5674 5668 5663 5660 5658 5655 5651 5647 5642 5638 5634 5628 5621 5615 5609 5607 5605 5600 5595 5591 5588 5585 5583 5579 5575
5737 5733 5729 5725 5722 5717 5714 5710 5707 5702 5697 5692 5689 5686 5683 5679 5675 5672 5668 5663 5657 5653 5650 5647 5643 5640 5636 5632 5628 5623 5617 5610 5604 5600 5598 5593 5588 5583 5579 5577 5575 5571 5568